Tracking 28790 objects as of 18-Apr-2024
HD Live streaming from Space Station
objects crossing your sky now

NOAA 16 DEB

Track NOAA 16 DEB now!
10-day predictions


NORAD ID: 41365
Int'l Code: 2000-055JJ
Perigee: 761.4 km
Apogee: 813.4 km
Inclination: 98.9 °
Period: 100.5 minutes
Semi major axis: 7158 km
RCS: Unknown
Launch date: September 21, 2000
Source: United States (US)
Launch site: AIR FORCE WESTERN TEST RANGE (AFWTR)

Note: This is SATELLITE DEBRIS
Your satellite tracking list
Your tracking list is empty




NASA's NSSDC Master Catalog

Two Line Element Set (TLE):
1 41365U 00055JJ  24108.59438677  .00016770  00000-0  60326-2 0  9993
2 41365  98.9088 244.2855 0036304 316.9120  42.9222 14.33437356425248
Source of the keplerian elements: AFSPC